• In Österreich
  • Länderverzeichnis
  • Für 7 Tage
  • Wassertemperatur
  • Satellitenkarten
  • Wetterkarte
  • News
  • Widgets
  • user-avatar
    Anmelden

    Stündliche Wetter Wlora

    Heute, 20 August, Montag

    Zeit Temperatur Niederschläge Wind Luftdruck Luftfeuchtigkeit
    00:00 +27°C° 0 mm 3 m/S 759 mmHg 44%
    01:00 +27°C° 0 mm 2 m/S 759 mmHg 43%
    02:00 +27°C° 0 mm 2 m/S 758 mmHg 43%
    03:00 +27°C° 0 mm 2 m/S 758 mmHg 44%
    04:00 +26°C° 0 mm 2 m/S 758 mmHg 44%
    05:00 +27°C° 0 mm 2 m/S 758 mmHg 45%
    06:00 +28°C° 0 mm 2 m/S 759 mmHg 45%
    07:00 +30°C° 0 mm 2 m/S 759 mmHg 45%
    08:00 +31°C° 0 mm 2 m/S 759 mmHg 41%
    09:00 +33°C° 0 mm 1 m/S 759 mmHg 37%
    10:00 +35°C° 0 mm 1 m/S 759 mmHg 34%
    11:00 +35°C° 0 mm 1 m/S 759 mmHg 33%
    12:00 +36°C° 0 mm 2 m/S 758 mmHg 33%
    13:00 +35°C° 0 mm 2 m/S 758 mmHg 36%
    14:00 +34°C° 0 mm 2 m/S 758 mmHg 38%
    15:00 +34°C° 0 mm 2 m/S 758 mmHg 39%
    16:00 +34°C° 0 mm 2 m/S 758 mmHg 41%
    17:00 +32°C° 0,1 mm 2 m/S 758 mmHg 43%
    18:00 +31°C° 0,1 mm 2 m/S 758 mmHg 46%
    19:00 +30°C° 0,1 mm 2 m/S 758 mmHg 48%
    20:00 +29°C° 0,1 mm 2 m/S 758 mmHg 50%
    21:00 +28°C° 0,1 mm 2 m/S 758 mmHg 52%
    22:00 +28°C° 0,1 mm 2 m/S 759 mmHg 53%
    23:00 +27°C° 0 mm 2 m/S 759 mmHg 53%

    Morgen, 21 August, Dienstag

    Zeit Temperatur Niederschläge Wind Luftdruck Luftfeuchtigkeit
    00:00 +27°C° 0 mm 2 m/S 759 mmHg 54%
    01:00 +27°C° 0 mm 3 m/S 759 mmHg 54%
    02:00 +26°C° 0 mm 3 m/S 759 mmHg 54%
    03:00 +26°C° 0 mm 2 m/S 759 mmHg 54%
    04:00 +26°C° 0 mm 2 m/S 759 mmHg 54%
    05:00 +27°C° 0 mm 2 m/S 759 mmHg 53%
    06:00 +28°C° 0 mm 2 m/S 759 mmHg 52%
    07:00 +29°C° 0 mm 2 m/S 759 mmHg 51%
    08:00 +31°C° 0 mm 2 m/S 759 mmHg 46%
    09:00 +32°C° 0 mm 2 m/S 759 mmHg 41%
    10:00 +35°C° 0 mm 2 m/S 760 mmHg 36%
    11:00 +35°C° 0 mm 2 m/S 760 mmHg 36%
    12:00 +35°C° 0 mm 3 m/S 759 mmHg 36%
    13:00 +35°C° 0 mm 4 m/S 759 mmHg 37%
    14:00 +34°C° 0 mm 3 m/S 759 mmHg 41%
    15:00 +33°C° 0 mm 3 m/S 759 mmHg 45%
    16:00 +31°C° 0 mm 3 m/S 759 mmHg 49%
    17:00 +30°C° 0 mm 2 m/S 759 mmHg 51%
    18:00 +30°C° 0 mm 2 m/S 759 mmHg 53%
    19:00 +29°C° 0 mm 2 m/S 759 mmHg 55%
    20:00 +28°C° 0 mm 1 m/S 760 mmHg 57%
    21:00 +28°C° 0 mm 1 m/S 760 mmHg 59%
    22:00 +27°C° 0 mm 1 m/S 760 mmHg 61%
    23:00 +27°C° 0 mm 1 m/S 760 mmHg 62%

    übermorgen, 22 August, Mittwoch

    Zeit Temperatur Niederschläge Wind Luftdruck Luftfeuchtigkeit
    00:00 +27°C° 0 mm 1 m/S 760 mmHg 63%
    01:00 +26°C° 0 mm 2 m/S 760 mmHg 64%
    02:00 +26°C° 0 mm 2 m/S 760 mmHg 63%
    03:00 +26°C° 0 mm 2 m/S 760 mmHg 62%
    04:00 +25°C° 0 mm 2 m/S 760 mmHg 62%
    05:00 +26°C° 0 mm 2 m/S 760 mmHg 59%
    06:00 +28°C° 0 mm 2 m/S 760 mmHg 56%
    07:00 +29°C° 0 mm 2 m/S 760 mmHg 53%
    08:00 +31°C° 0 mm 1 m/S 760 mmHg 47%
    09:00 +32°C° 0 mm 1 m/S 760 mmHg 41%
    10:00 +34°C° 0 mm 1 m/S 761 mmHg 36%
    11:00 +35°C° 0 mm 2 m/S 760 mmHg 36%
    12:00 +35°C° 0 mm 2 m/S 760 mmHg 36%
    13:00 +35°C° 0 mm 3 m/S 760 mmHg 36%
    14:00 +34°C° 0 mm 3 m/S 760 mmHg 40%
    15:00 +34°C° 0 mm 3 m/S 760 mmHg 44%
    16:00 +33°C° 0 mm 3 m/S 760 mmHg 48%
    17:00 +31°C° 0 mm 3 m/S 760 mmHg 52%
    18:00 +30°C° 0 mm 3 m/S 760 mmHg 56%
    19:00 +28°C° 0 mm 2 m/S 760 mmHg 60%
    20:00 +28°C° 0 mm 2 m/S 760 mmHg 60%
    21:00 +28°C° 0 mm 2 m/S 760 mmHg 61%
    22:00 +27°C° 0 mm 2 m/S 761 mmHg 62%
    23:00 +27°C° 0 mm 2 m/S 760 mmHg 60%

    23 August, Donnerstag

    Zeit Temperatur Niederschläge Wind Luftdruck Luftfeuchtigkeit
    00:00 +27°C° 0 mm 2 m/S 760 mmHg 58%
    01:00 +26°C° 0 mm 2 m/S 760 mmHg 56%
    02:00 +26°C° 0 mm 2 m/S 760 mmHg 53%
    03:00 +26°C° 0 mm 2 m/S 760 mmHg 51%
    04:00 +26°C° 0 mm 2 m/S 760 mmHg 48%
    05:00 +27°C° 0 mm 2 m/S 760 mmHg 46%
    06:00 +28°C° 0 mm 2 m/S 760 mmHg 43%
    07:00 +29°C° 0 mm 2 m/S 760 mmHg 41%
    08:00 +31°C° 0 mm 2 m/S 760 mmHg 37%
    09:00 +34°C° 0 mm 2 m/S 760 mmHg 33%
    10:00 +35°C° 0 mm 1 m/S 760 mmHg 28%
    11:00 +36°C° 0 mm 2 m/S 759 mmHg 28%
    12:00 +37°C° 0 mm 2 m/S 759 mmHg 28%
    13:00 +37°C° 0 mm 3 m/S 759 mmHg 27%
    14:00 +36°C° 0 mm 3 m/S 759 mmHg 33%
    15:00 +34°C° 0 mm 3 m/S 759 mmHg 38%
    16:00 +33°C° 0 mm 3 m/S 758 mmHg 43%
    17:00 +31°C° 0 mm 3 m/S 758 mmHg 46%
    18:00 +30°C° 0 mm 2 m/S 758 mmHg 50%
    19:00 +29°C° 0 mm 2 m/S 758 mmHg 53%
    20:00 +28°C° 0 mm 2 m/S 759 mmHg 54%
    21:00 +28°C° 0 mm 1 m/S 759 mmHg 54%
    22:00 +28°C° 0 mm 1 m/S 759 mmHg 55%
    23:00 +27°C° 0 mm 1 m/S 759 mmHg 54%

    24 August, Freitag

    Zeit Temperatur Niederschläge Wind Luftdruck Luftfeuchtigkeit
    00:00 +27°C° 0 mm 1 m/S 759 mmHg 54%
    01:00 +27°C° 0 mm 2 m/S 759 mmHg 53%
    02:00 +27°C° 0 mm 2 m/S 758 mmHg 52%
    03:00 +27°C° 0 mm 2 m/S 758 mmHg 50%
    04:00 +27°C° 0 mm 2 m/S 758 mmHg 48%
    05:00 +28°C° 0 mm 2 m/S 758 mmHg 47%
    06:00 +28°C° 0 mm 2 m/S 758 mmHg 46%
    07:00 +29°C° 0 mm 2 m/S 758 mmHg 44%
    08:00 +31°C° 0 mm 2 m/S 758 mmHg 41%
    09:00 +32°C° 0 mm 1 m/S 758 mmHg 37%
    10:00 +34°C° 0 mm 1 m/S 759 mmHg 33%
    11:00 +35°C° 0 mm 2 m/S 758 mmHg 33%
    12:00 +35°C° 0 mm 2 m/S 758 mmHg 33%
    13:00 +36°C° 0 mm 3 m/S 758 mmHg 33%
    14:00 +35°C° 0 mm 3 m/S 757 mmHg 35%
    15:00 +35°C° 0 mm 3 m/S 757 mmHg 38%
    16:00 +34°C° 0 mm 3 m/S 757 mmHg 41%
    17:00 +32°C° 0 mm 2 m/S 757 mmHg 46%
    18:00 +30°C° 0 mm 2 m/S 757 mmHg 51%
    19:00 +29°C° 0 mm 2 m/S 757 mmHg 56%
    20:00 +28°C° 0 mm 1 m/S 757 mmHg 58%
    21:00 +28°C° 0 mm 1 m/S 757 mmHg 59%
    22:00 +27°C° 0 mm 1 m/S 758 mmHg 61%
    23:00 +27°C° 0 mm 1 m/S 757 mmHg 60%

    25 August, Samstag

    Zeit Temperatur Niederschläge Wind Luftdruck Luftfeuchtigkeit
    00:00 +26°C° 0 mm 1 m/S 757 mmHg 60%
    01:00 +26°C° 0 mm 1 m/S 757 mmHg 60%
    02:00 +26°C° 0 mm 1 m/S 757 mmHg 58%
    03:00 +26°C° 0 mm 1 m/S 757 mmHg 57%
    04:00 +25°C° 0 mm 1 m/S 757 mmHg 56%
    05:00 +26°C° 0 mm 1 m/S 757 mmHg 52%
    06:00 +27°C° 0 mm 1 m/S 757 mmHg 49%
    07:00 +29°C° 0 mm 1 m/S 757 mmHg 46%
    08:00 +30°C° 0 mm 1 m/S 757 mmHg 42%
    09:00 +32°C° 0 mm 1 m/S 757 mmHg 38%
    10:00 +33°C° 0 mm 1 m/S 757 mmHg 35%
    11:00 +35°C° 0 mm 2 m/S 757 mmHg 34%
    12:00 +35°C° 0 mm 3 m/S 757 mmHg 34%
    13:00 +36°C° 0 mm 3 m/S 757 mmHg 33%
    14:00 +35°C° 0 mm 3 m/S 757 mmHg 36%
    15:00 +35°C° 0 mm 3 m/S 756 mmHg 38%
    16:00 +34°C° 0 mm 3 m/S 756 mmHg 41%
    17:00 +33°C° 0 mm 3 m/S 756 mmHg 46%
    18:00 +30°C° 0 mm 3 m/S 757 mmHg 51%
    19:00 +28°C° 0 mm 2 m/S 757 mmHg 57%
    20:00 +28°C° 0 mm 2 m/S 757 mmHg 58%
    21:00 +27°C° 0 mm 2 m/S 757 mmHg 59%
    22:00 +27°C° 0 mm 2 m/S 757 mmHg 60%
    23:00 +26°C° 0 mm 2 m/S 757 mmHg 61%
    Mehr zeigen